When you browse on this site, cookies collect data to enhance your experience and personalize the content and advertising you see.
Visit our Privacy Policy to learn more. By continuing to use the site, you agree to this use of cookies and data.
  • In France
  • List of Countries
  • For 7 days
  • Water Temperature
  • Weather Map
  • Weather Widgets
  • user-avatar
    Login

    Hourly Weather Zapotlan de Juarez

    Today, 21 September, Saturday

    Time Temperature Precipitation Wind Pressure Humidity
    00:00 +13°C° 0 mm 1 mps 575 mmHg 87%
    01:00 +12°C° 0 mm 1 mps 575 mmHg 86%
    02:00 +12°C° 0 mm 1 mps 575 mmHg 86%
    03:00 +12°C° 0 mm 1 mps 575 mmHg 85%
    04:00 +11°C° 0 mm 1 mps 575 mmHg 85%
    05:00 +10°C° 0 mm 0 mps 575 mmHg 85%
    06:00 +12°C° 0 mm 0 mps 576 mmHg 77%
    07:00 +14°C° 0 mm 0 mps 577 mmHg 69%
    08:00 +16°C° 0 mm 0 mps 578 mmHg 60%
    09:00 +19°C° 0 mm 1 mps 579 mmHg 53%
    10:00 +21°C° 0 mm 1 mps 579 mmHg 47%
    11:00 +23°C° 0 mm 2 mps 579 mmHg 40%
    12:00 +22°C° 0 mm 3 mps 579 mmHg 40%
    13:00 +23°C° 0 mm 4 mps 579 mmHg 41%
    14:00 +23°C° 0 mm 4 mps 579 mmHg 42%
    15:00 +22°C° 0.1 mm 4 mps 578 mmHg 52%
    16:00 +20°C° 0.1 mm 4 mps 577 mmHg 63%
    17:00 +18°C° 0.1 mm 4 mps 576 mmHg 73%
    18:00 +17°C° 0.1 mm 4 mps 576 mmHg 79%
    19:00 +16°C° 0.1 mm 3 mps 576 mmHg 84%
    20:00 +14°C° 0.1 mm 2 mps 576 mmHg 90%
    21:00 +14°C° 0 mm 2 mps 576 mmHg 90%
    22:00 +14°C° 0 mm 1 mps 576 mmHg 91%
    23:00 +13°C° 0 mm 1 mps 576 mmHg 92%

    Tomorrow, 22 September, Sunday

    Time Temperature Precipitation Wind Pressure Humidity
    00:00 +13°C° 0 mm 1 mps 576 mmHg 92%
    01:00 +13°C° 0 mm 1 mps 575 mmHg 92%
    02:00 +11°C° 0 mm 0 mps 575 mmHg 92%
    03:00 +11°C° 0 mm 0 mps 575 mmHg 91%
    04:00 +11°C° 0 mm 0 mps 575 mmHg 91%
    05:00 +11°C° 0 mm 0 mps 575 mmHg 91%
    06:00 +12°C° 0 mm 0 mps 576 mmHg 83%
    07:00 +14°C° 0 mm 0 mps 577 mmHg 75%
    08:00 +16°C° 0 mm 0 mps 578 mmHg 67%
    09:00 +20°C° 0 mm 1 mps 579 mmHg 59%
    10:00 +22°C° 0 mm 1 mps 579 mmHg 50%
    11:00 +24°C° 0 mm 2 mps 579 mmHg 42%
    12:00 +24°C° 0 mm 3 mps 579 mmHg 41%
    13:00 +23°C° 0 mm 4 mps 579 mmHg 41%
    14:00 +25°C° 0 mm 5 mps 579 mmHg 41%
    15:00 +22°C° 0 mm 5 mps 578 mmHg 49%
    16:00 +21°C° 0 mm 5 mps 577 mmHg 58%
    17:00 +19°C° 0 mm 4 mps 577 mmHg 67%
    18:00 +18°C° 0 mm 4 mps 576 mmHg 75%
    19:00 +16°C° 0 mm 3 mps 576 mmHg 82%
    20:00 +14°C° 0 mm 2 mps 576 mmHg 89%
    21:00 +14°C° 0 mm 2 mps 576 mmHg 90%
    22:00 +13°C° 0 mm 1 mps 576 mmHg 90%
    23:00 +13°C° 0 mm 1 mps 576 mmHg 90%

    Day after tomorrow, 23 September, Monday

    Time Temperature Precipitation Wind Pressure Humidity
    00:00 +12°C° 0 mm 1 mps 576 mmHg 90%
    01:00 +12°C° 0 mm 1 mps 575 mmHg 90%
    02:00 +11°C° 0 mm 1 mps 575 mmHg 90%
    03:00 +10°C° 0 mm 0 mps 574 mmHg 89%
    04:00 +10°C° 0 mm 0 mps 574 mmHg 88%
    05:00 +9°C° 0 mm 0 mps 574 mmHg 88%
    06:00 +11°C° 0 mm 0 mps 576 mmHg 77%
    07:00 +13°C° 0 mm 0 mps 577 mmHg 66%
    08:00 +16°C° 0 mm 0 mps 578 mmHg 55%
    09:00 +19°C° 0 mm 1 mps 579 mmHg 47%
    10:00 +21°C° 0 mm 1 mps 579 mmHg 38%
    11:00 +23°C° 0 mm 2 mps 580 mmHg 30%
    12:00 +22°C° 0 mm 3 mps 579 mmHg 31%
    13:00 +23°C° 0 mm 4 mps 579 mmHg 32%
    14:00 +23°C° 0 mm 5 mps 579 mmHg 33%
    15:00 +22°C° 0 mm 5 mps 578 mmHg 45%
    16:00 +20°C° 0 mm 5 mps 577 mmHg 58%
    17:00 +18°C° 0 mm 4 mps 576 mmHg 70%
    18:00 +17°C° 0 mm 4 mps 576 mmHg 76%
    19:00 +14°C° 0 mm 3 mps 576 mmHg 83%
    20:00 +14°C° 0 mm 2 mps 576 mmHg 89%
    21:00 +13°C° 0 mm 2 mps 576 mmHg 88%
    22:00 +13°C° 0 mm 1 mps 576 mmHg 88%
    23:00 +13°C° 0 mm 1 mps 575 mmHg 87%

    24 September, Tuesday

    Time Temperature Precipitation Wind Pressure Humidity
    00:00 +12°C° 0 mm 1 mps 575 mmHg 87%
    01:00 +11°C° 0 mm 0 mps 575 mmHg 87%
    02:00 +11°C° 0 mm 0 mps 574 mmHg 87%
    03:00 +10°C° 0 mm 0 mps 574 mmHg 87%
    04:00 +10°C° 0 mm 0 mps 574 mmHg 87%
    05:00 +10°C° 0 mm 0 mps 574 mmHg 87%
    06:00 +12°C° 0 mm 0 mps 575 mmHg 80%
    07:00 +14°C° 0 mm 0 mps 577 mmHg 72%
    08:00 +16°C° 0 mm 0 mps 578 mmHg 64%
    09:00 +18°C° 0.2 mm 0 mps 578 mmHg 59%
    10:00 +21°C° 0.2 mm 1 mps 578 mmHg 53%
    11:00 +23°C° 0.2 mm 1 mps 579 mmHg 48%
    12:00 +23°C° 0.6 mm 1 mps 578 mmHg 48%
    13:00 +23°C° 0.6 mm 2 mps 578 mmHg 48%
    14:00 +23°C° 0.6 mm 2 mps 577 mmHg 49%
    15:00 +21°C° 0.8 mm 2 mps 577 mmHg 55%
    16:00 +20°C° 0.8 mm 2 mps 576 mmHg 62%
    17:00 +19°C° 0.8 mm 2 mps 576 mmHg 69%
    18:00 +18°C° 1.2 mm 2 mps 576 mmHg 73%
    19:00 +17°C° 1.2 mm 2 mps 576 mmHg 78%
    20:00 +16°C° 1.2 mm 1 mps 576 mmHg 83%
    21:00 +16°C° 0.4 mm 1 mps 576 mmHg 83%
    22:00 +15°C° 0.4 mm 0 mps 576 mmHg 83%
    23:00 +15°C° 0.4 mm 0 mps 576 mmHg 83%

    25 September, Wednesday

    Time Temperature Precipitation Wind Pressure Humidity
    00:00 +14°C° 0 mm 0 mps 575 mmHg 84%
    01:00 +13°C° 0 mm 0 mps 575 mmHg 85%
    02:00 +13°C° 0 mm 0 mps 574 mmHg 86%
    03:00 +13°C° 0 mm 0 mps 574 mmHg 86%
    04:00 +13°C° 0 mm 1 mps 574 mmHg 85%
    05:00 +13°C° 0 mm 1 mps 574 mmHg 85%
    06:00 +15°C° 0 mm 1 mps 575 mmHg 78%
    07:00 +18°C° 0 mm 1 mps 576 mmHg 71%
    08:00 +19°C° 0 mm 1 mps 577 mmHg 63%
    09:00 +21°C° 0 mm 1 mps 577 mmHg 58%
    10:00 +22°C° 0 mm 1 mps 578 mmHg 53%
    11:00 +24°C° 0 mm 1 mps 578 mmHg 48%
    12:00 +24°C° 0.2 mm 2 mps 578 mmHg 48%
    13:00 +24°C° 0.2 mm 3 mps 577 mmHg 48%
    14:00 +24°C° 0.2 mm 3 mps 577 mmHg 47%
    15:00 +24°C° 0.2 mm 3 mps 576 mmHg 52%
    16:00 +22°C° 0.2 mm 3 mps 576 mmHg 57%
    17:00 +21°C° 0.2 mm 3 mps 576 mmHg 63%
    18:00 +19°C° 0.3 mm 2 mps 576 mmHg 68%
    19:00 +18°C° 0.3 mm 2 mps 576 mmHg 73%
    20:00 +18°C° 0.3 mm 1 mps 576 mmHg 78%
    21:00 +16°C° 0.3 mm 1 mps 576 mmHg 79%
    22:00 +16°C° 0.3 mm 1 mps 576 mmHg 79%
    23:00 +16°C° 0.3 mm 1 mps 576 mmHg 79%

    26 September, Thursday

    Time Temperature Precipitation Wind Pressure Humidity
    00:00 +16°C° 0.2 mm 1 mps 575 mmHg 80%
    01:00 +15°C° 0.2 mm 1 mps 575 mmHg 82%
    02:00 +15°C° 0.2 mm 1 mps 575 mmHg 84%
    03:00 +14°C° 0.1 mm 0 mps 574 mmHg 85%
    04:00 +13°C° 0.1 mm 0 mps 574 mmHg 86%
    05:00 +13°C° 0.1 mm 0 mps 574 mmHg 88%
    06:00 +15°C° 0 mm 0 mps 575 mmHg 80%
    07:00 +16°C° 0 mm 0 mps 576 mmHg 73%
    08:00 +18°C° 0 mm 0 mps 577 mmHg 66%
    09:00 +22°C° 0 mm 1 mps 577 mmHg 58%
    10:00 +23°C° 0 mm 2 mps 578 mmHg 51%
    11:00 +25°C° 0 mm 2 mps 578 mmHg 43%
    12:00 +25°C° 0 mm 3 mps 578 mmHg 43%
    13:00 +25°C° 0 mm 4 mps 577 mmHg 43%
    14:00 +26°C° 0 mm 5 mps 577 mmHg 43%
    15:00 +23°C° 0.3 mm 5 mps 576 mmHg 51%
    16:00 +22°C° 0.3 mm 4 mps 576 mmHg 59%
    17:00 +20°C° 0.3 mm 4 mps 575 mmHg 66%
    18:00 +19°C° 0.1 mm 3 mps 575 mmHg 72%
    19:00 +18°C° 0.1 mm 3 mps 575 mmHg 77%
    20:00 +16°C° 0.1 mm 2 mps 575 mmHg 83%
    21:00 +16°C° 0 mm 2 mps 575 mmHg 82%
    22:00 +15°C° 0 mm 2 mps 575 mmHg 81%
    23:00 +15°C° 0 mm 1 mps 575 mmHg 80%
    Show more